Location: Düngen
(52.0952°N, 10.0219°E)
Time: 19:35:18
(UTC+00:00)

Resurs 01 Rocket - Pass Details

Date: 11 March 2026
Orbit: 625 x 637 km, 97.7° (Epoch: 20 April)

Event Time Altitude Azimuth Distance (km) Brightness Sun altitude
Rises 17:58:23 0° 162° (SSE) 2,927 4.8 -7.1°
Reaches altitude 10° 18:00:34 10° 162° (SSE) 2,023 4.0 -7.5°
Maximum altitude 18:04:59 84° 74° (ENE) 648 1.6 -8.1°
Drops below altitude 10° 18:09:26 10° 347° (NNW) 2,037 4.5 -8.8°
Sets 18:11:39 0° 347° (NNW) 2,949 5.3 -9.2°
